Regional Weather Roundup
Issued by NWS

Home | Current Version | Previous Version | Text Only | Print | Product List | Glossary Off
Versions: 1 2 3 4 5 6 7 8 9 10 11 12 13 14 15 16 17 18 19 20 21 22 23 24 25 26 27 28 29 30 31 32 33 34 35 36 37 38 39 40 41 42 43 44 45 46 47 48 49 50

000
ASUS43 KLOT 292210
RWRIL

ILLINOIS REGIONAL WEATHER ROUNDUP
NATIONAL WEATHER SERVICE CHICAGO/ROMEOVILLE IL
500 PM CDT TUE JUL 29 2014

NOTE: "FAIR" INDICATES FEW OR NO CLOUDS BELOW 12,000 FEET WITH NO
SIGNIFICANT WEATHER AND/OR OBSTRUCTIONS TO VISIBILITY.

* THESE STATIONS ARE NOT UNDER NWS QUALITY CONTROL. THEY ALSO MAY NOT
  REPORT WEATHER SUCH AS PRECIPITATION OR FOG.

ILZ001-002-007-009-015-016-024-292300-
NORTHWEST ILLINOIS

CITY           SKY/WX    TMP DP  RH WIND       PRES   REMARKS
MOLINE         MOSUNNY   79  56  45 W13       30.05F HX  80
STERLING*      MOSUNNY   81  59  47 NW14      30.03F HX  81
SAVANNA*       SUNNY     81  53  37 W10       30.03F HX  80
$$

ILZ003-004-008-010-011-017-018-292300-
NORTH CENTRAL ILLINOIS

CITY           SKY/WX    TMP DP  RH WIND       PRES   REMARKS
ROCKFORD       PTSUNNY   73  57  57 W14G26    30.03F
FREEPORT*      MOSUNNY   75  63  66 W7        30.05F
ROCHELLE*      MOSUNNY   76  58  53 W14G21    30.03F
DE KALB*       LGT RAIN  68  59  72 W8        30.04S
PERU*          PTSUNNY   78  57  47 W15       30.04F
$$

ILZ005-006-012>014-019>023-292300-
NORTHEAST ILLINOIS

CITY           SKY/WX    TMP DP  RH WIND       PRES   REMARKS
CHICAGO-OHARE  PTSUNNY   80  50  34 NW12      29.99F HX  80
CHICAGO-MIDWAY PTSUNNY   76  58  53 E7        30.00S
AURORA         CLOUDY    73  58  59 SW7       30.03F
LANSING*       MOSUNNY   72  59  63 NE5       30.01S
JOLIET*        MOSUNNY   71  53  52 W9G17     30.04R
WAUKEGAN       MOSUNNY   75  59  57 VRB7      29.99F
DUPAGE AIRPORT LGT RAIN  73  59  61 W14       30.01S
KANKAKEE*      MOSUNNY   77  59  53 W10       30.02S
WHEELING       MOSUNNY   81  52  36 NW12      30.00F HX  80
MORRIS*        CLOUDY    64  60  85 W7        30.05R
ROMEOVILLE*    LGT RAIN  69  56  62 W12       30.03R
NORTHERLY ISL    N/A     68  60  75 SE5         N/A
$$

LMZ740>746-292300-
SOUTHERN LAKE MICHIGAN

STATION/POSITION SKY/WX   TEMP    WIND        PRES    VSBY  WAVE
                          AIR SEA DIR/SP/G                  HT/PER
                          (F)     (DEG/KT/KT) (MB)    (MI)  (FT/S)
SOUTHERN BUOY              63 62  180/  8/  8 1015.8F         1
WAUKEGAN HARBOR            68     160/  9/  9   N/A
HARRISON CRIB              67     140/  8/  9   N/A
BURNHAM HARBOR             69     130/  3/  7   N/A
CALUMET HARBOR             67     110/  5/  7 1015.0F
BURNS HARBOR               69      60/  9/ 10 1017.3S
MICHIGAN CITY              66      40/  4/  5   N/A
MICHIGAN CITY 6N           67 69  100/  2/  4   N/A           1/ 3
ST. JOSEPH                 66 68  200/  2/  4   N/A           1/ 3
$$

ILZ025>027-034>036-040-047-049-050-058-095>099-292300-
WEST-CENTRAL ILLINOIS

CITY           SKY/WX    TMP DP  RH WIND       PRES   REMARKS
QUINCY         SUNNY     77  55  46 NW6       30.11F
GALESBURG*     SUNNY     79  59  50 NW8       30.08F HX  80
MACOMB*        MOSUNNY   76  59  54 W9G17     30.11F
JACKSONVILLE*  SUNNY     78  57  48 NW6       30.11F
PITTSFIELD*    MOSUNNY   78  54  43 W5        30.12F
$$

ILZ028>032-037-038-041>044-048-051>054-059>061-292300-
CENTRAL ILLINOIS

CITY           SKY/WX    TMP DP  RH WIND       PRES   REMARKS
PONTIAC        MOSUNNY   79  57  47 W10       30.04S HX  80
DECATUR        MOSUNNY   77  54  44 NW12      30.08F
PEORIA         MOSUNNY   80  55  42 W12       30.07F HX  80
LACON*         MOSUNNY   79  54  42 W9        30.03F
LINCOLN*       MOSUNNY   79  56  44 W7        30.05F HX  80
SPRINGFIELD    SUNNY     79  56  45 W6        30.09F HX  80
TAYLORVILLE    MOSUNNY   75  54  46 W7        30.09F
$$

ILZ033-039-045-046-055>057-062-063-292300-
EAST-CENTRAL ILLINOIS

CITY           SKY/WX    TMP DP  RH WIND       PRES   REMARKS
CHAMPAIGN      MOSUNNY   75  58  55 W13       30.07F
DANVILLE*      SUNNY     75  58  55 W10G16    30.02F HAZE
RANTOUL*       MOSUNNY   76  56  48 W10       30.06F
MATTOON        SUNNY     76  56  49 W10       30.08F
PARIS*         MOSUNNY   76  58  53 W13G18    30.07F
$$

ILZ079-100>102-292300-
SOUTHWEST ILLINOIS

CITY           SKY/WX    TMP DP  RH WIND       PRES   REMARKS
ALTON          MOSUNNY   75  57  53 NW9       30.11S
BELLEVILLE     SUNNY     80  54  40 NW8       30.09F HX  80
CAHOKIA*       MOSUNNY   81  53  37 NW12      30.10S HX  80
SPARTA*        SUNNY     75  54  46 N3        30.11F
$$

ILZ064>066-069>071-074>076-080>082-084>086-088>090-092>094-292300-
SOUTH-CENTRAL ILLINOIS

CITY           SKY/WX    TMP DP  RH WIND       PRES   REMARKS
CARBONDALE     PTSUNNY   80  52  37 MISG      30.11F HX  80
CAIRO*         MOSUNNY   81  56  42 N6        30.12S HX  81
EFFINGHAM*     MOSUNNY   78  47  32 W7        30.09F
MARION         MOSUNNY   79  52  38 N6        30.12
MT. VERNON     PTSUNNY   77  54  44 N5        30.11S
CENTRALIA*     MOSUNNY   83  52  34 W6        30.10S HX  82
SALEM*         PTSUNNY  N/A N/A N/A NW9       30.10F
METROPOLIS*    PTSUNNY   80  45  29 NW6       30.11S
$$

ILZ067-068-072-073-078-083-087-091-292300-
SOUTHEAST ILLINOIS

CITY           SKY/WX    TMP DP  RH WIND       PRES   REMARKS
FLORA*         SUNNY     77  51  40 NW7       30.09F
FAIRFIELD*     MOSUNNY   79  57  47 W3        30.09F HX  80
HARRISBURG*    SUNNY     77  53  43 NW6       30.11F
ROBINSON*      SUNNY     78  59  51 NW12      30.08F
CARMI*         MOSUNNY   79  57  47 W9        30.09S HX  80
$$

ABBREVIATIONS USED IN REMARKS
   TC - TEMPERATURE IN CELSIUS
  WCI - WIND CHILL INDEX
   HX - HEAT INDEX
  VSB - VISIBILITY
$$




USA.gov is the U.S. government's official web portal to all federal, state and local government web resources and services.